User: anonymous   Login
Location: Unspecified
(0.0000°N, 0.0000°E)
Time: 04:00:49
(UTC+00:00)
Language:

SO-50 - Orbit

View from above orbital plane
View from above orbital plane
View from above satellite
View from above satellite

Ground track
Ground track

The orbit data is extracted from the following two-line orbital elements,

1 27607U 02058C   19082.92985320 -.00000031 +00000-0 +16569-4 0  9991
2 27607 064.5551 314.8574 0082366 273.0517 086.1163 14.75529027874109
Epoch (UTC): 23 March 2019 22:18:59
Eccentricity: 0.0082366
inclination: 64.5551°
perigee height: 585 km
apogee height: 701 km
right ascension of ascending node: 314.8574°
argument of perigee: 273.0517°
revolutions per day: 14.75529027
mean anomaly at epoch: 86.1163°
orbit number at epoch: 87410

The dashed part of the orbit path shows where the satellite is in the earth's shadow,  

DLR